150  
ASUS41 KPHI 071014  
RWRPHI  
 
REGIONAL WEATHER ROUNDUP  
NATIONAL WEATHER SERVICE MOUNT HOLLY NJ  
600 AM EDT THU JUL 07 2022  
 
NOTE: "FAIR" INDICATES FEW OR NO CLOUDS BELOW 12,000 FEET WITH NO  
SIGNIFICANT WEATHER AND/OR S TO VISIBILITY
.  
 
* = STATION DOES NOT REPORT PRECIPITATION (E.G. RAIN, SNOW, ETC.)  
OR FOG.
 
 
NJZ015>026-071100-  
SOUTHERN NEW JERSEY  
 
CITY SKY/WX TMP DP RH WIND PRES REMARKS
 
POMONA CLOUDY 71 69 93 NE6 29.94S  
WILDWOOD* LGT RAIN 73 71 93 E9 29.91F  
MILLVILLE LGT RAIN 71 69 93 NE5 29.94R  
WRIGHTSTOWN LGT RAIN 69 69 99 CALM 29.96R FOG  
MOUNT HOLLY RAIN 71 68 90 VRB3 29.96R FOG  
TRENTON LGT RAIN 72 64 76 SE3 29.96R  
 

 
NJZ001>014-071100-  
NORTHERN NEW JERSEY  
 
CITY SKY/WX TMP DP RH WIND PRES REMARKS
 
SUSSEX MOCLDY 68 61 78 NE3 30.01R  
ANDOVER* N/A 70 62 76 NE5 30.00R  
MORRISTOWN CLOUDY 70 61 73 N5 29.99R  
NEWARK MOCLDY 77 61 57 E10 29.98R  
TETERBORO CLOUDY 72 61 68 E6 29.97R  
CALDWELL CLOUDY 73 59 61 E5 29.99R  
SOMERVILLE MOCLDY 73 61 65 NE5 29.96R  
ALLAIRE* CLOUDY 72 72 100 E8 29.98R  
 

 
PAZ043-044-047-054-055-060>062-066>071-071100-  
EASTERN PENNSYLVANIA  
 
CITY SKY/WX TMP DP RH WIND PRES REMARKS
 
PHILADELPHIA HVY RAIN 70 68 93 NE8 29.96R FOG  
NORTH PHILA LGT RAIN 70 67 90 CALM 29.98R  
BLUE BELL* LGT RAIN 69 68 96 SE3 29.98R  
DOYLESTOWN LGT RAIN 72 62 71 CALM 29.97R  
QUAKERTOWN* MOCLDY 72 64 78 NE5 29.98R  
PERKASIE* CLOUDY 70 66 88 NE5 29.99R  
POTTSTOWN CLOUDY 68 66 93 CALM 29.99R  
LANCASTER RAIN 69 66 90 S3 29.98R FOG  
COATESVILLE LGT RAIN 66 66 100 CALM 30.00R  
WEST CHESTER HVY RAIN 68 64 88 CALM 29.99R  
READING CLOUDY 74 65 73 CALM 29.96R  
ALLENTOWN CLOUDY 70 61 73 NE7 29.97R  
QN CITY/ALNTWN CLOUDY 72 63 73 NE5 29.99R  
MOUNT POCONO CLOUDY 65 56 72 E8 30.04R  
HAZLETON CLOUDY 66 59 77 CALM 30.05R  
LEHIGHTON CLOUDY 68 63 83 CALM 29.99S  
WILKES BARRE CLOUDY 66 60 81 CALM 30.02R  
 

 
DEZALL-MDZ008-012-015-019-020-071100-  
DELAWARE AND EASTERN MARYLAND  
 
CITY SKY/WX TMP DP RH WIND PRES REMARKS
 
WILMINGTON RAIN 70 68 93 N6 29.97R FOG  
DOVER LGT RAIN 70 70 100 NE10 29.91R  
CHESWOLD PTSUNNY 70 70 100 NE9 29.92S  
GEORGETOWN LGT RAIN 75 74 96 E6 29.91R FOG  
EASTON CLOUDY 73 73 100 E5 29.94R FOG  
ABERDEEN LGT RAIN 69 68 97 NE9 29.93  
OCEAN CITY MOCLDY 72 71 97 S3 29.91R  
WALLOPS ISLAND PTCLDY 75 73 93 S5 29.89F  
SALISBURY PTCLDY 75 73 93 SE3 29.89R  
 

 
PAZ001-021-NYZ056-072-MDZ011-DCZ001-071100-  
OTHER NEARBY LOCATIONS  
 
CITY SKY/WX TMP DP RH WIND PRES REMARKS
 
HARRISBURG LGT RAIN 70 64 81 SE6 29.96R  
STATE COLLEGE MOCLDY 66 61 82 NE6 30.01S  
WILLIAMSPORT CLOUDY 68 59 73 CALM 29.98S  
BINGHAMTON PTCLDY 57 56 96 NW3 30.04R  
NEW YORK CITY CLOUDY 72 62 71 NE6 30.01R  
BALTIMORE CLOUDY 73 69 87 NE7 29.93R  
WASHINGTON DC CLOUDY 77 72 84 N13 29.92R  
 

 
 
 
CLICK HERE TO GO TO PREVIOUS BULLETINS.

The Nexlab PA Page
The Nexlab NJ Page
The Nexlab DE Page
The Nexlab MD Page Main Text Page